sat.trackr.live / text

‹ back to catalog

STARLINK-31065

NORAD 58627 · 2023-203K

PAYLOAD ACTIVE UNKNOWN

§ Identity

Operator
Country
US
Launch date
2023-12-23
Launch site
AFETR
Launch vehicle
Mass (kg)
RCS (m²)

Purposes: comms

External: N2YO · Heavens-Above · Gunter

§ Orbital elements

Epoch: 2026-09-20T16:04:01.739712Z

Period
94.27 min
Inclination
43.0024°
Eccentricity
0.0001185
Mean motion
15.27576031 rev/d
Perigee alt
482.2 km
Apogee alt
483.9 km
Semi-major
6,861.2 km
B*
1.2694e-5
RAAN
45.7303°
Arg perigee
269.4694°
Mean anomaly
90.6022°
Rev number
15,338

§ Raw data

STARLINK-310651 58627U 23203K   26263.66946458  .00000087  00000+0  12694-4 0  99952 58627  43.0024  45.7303 0001185 269.4694  90.6022 15.27576031153386

JSON: /api/v1/satellites/58627 · /tle

For live sub-satellite position, see the globe view (requires WebGL).

§ Visibility from observer

Set your observer location to see the next 7 days of passes ≥ 10°. The values pass through the URL so the page stays shareable.

No JS? Fill the form by hand. The geolocation button needs JavaScript.